Location: Cheyres
(46.8153°N, 6.7877°E)
Time: 10:47:31
(UTC+00:00)

Cosmos 1328 Rocket - Pass Details

Date: 19 September 2021
Orbit: 601 x 626 km, 82.5° (Epoch: 25 October)

Event Time Altitude Azimuth Distance (km) Brightness Sun altitude
Exits shadow 03:05:44 - 162° (SSE) 2,424 6.5 -22.1°
Reaches altitude 10° 03:06:57 10° 156° (SSE) 1,966 6.1 -21.9°
Maximum altitude 03:10:54 35° 91° (E) 994 5.1 -21.3°
Drops below altitude 10° 03:14:51 10° 26° (NNE) 1,968 6.8 -20.7°
Sets 03:17:12 0° 18° (NNE) 2,873 7.6 -20.4°
